Temperature
25 25 25 26 28 29 30 33 33 33 32 31 31 31 31 30 28 25 25 25 23 23 22 22 22 21 20 20 19 19 19 19 19 19 19 19 19 19 18 18 18 18 18 18 18 18 18 18 18
25 25 26 28 28 29 30 33 33 33 32 32 32 31 31 29 28 26 25 24 22 22 22 22 21 21 20 20 19 19 19 19 19 19 18 18 18 18 18 18 18 18 18 18 18 18 18 18 18
25 25 26 29 29 29 30 33 33 33 32 32 32 32 30 29 27 25 24 23 22 21 21 21 21 21 20 20 19 19 19 19 19 19 18 18 18 18 18 18 18 18 18 18 18 18 18 18 18
24 26 27 28 28 31 32 33 34 33 33 32 32 31 29 28 27 25 24 23 22 21 21 21 21 21 20 20 19 19 19 19 19 18 18 18 18 18 18 18 18 18 18 18 18 18 18 18 18
24 26 27 28 29 31 33 33 33 33 33 32 32 31 28 27 26 24 24 24 22 21 21 21 21 20 20 20 19 19 19 19 19 18 18 18 18 18 18 18 18 17 17 18 18 18 18 18 18
26 27 27 27 29 31 33 33 33 33 33 32 31 31 28 26 25 24 24 24 23 21 21 22 21 20 20 20 19 19 19 19 18 18 18 18 18 18 18 18 17 17 17 17 18 18 18 18 18
26 27 27 28 29 31 33 33 34 33 33 31 31 31 28 26 25 25 24 24 23 22 21 22 21 20 20 19 19 19 19 18 18 18 18 18 18 18 18 18 18 17 17 18 18 18 18 18 18
26 27 27 28 29 30 32 33 33 33 33 31 30 31 28 26 25 25 25 25 24 22 21 22 21 21 20 19 19 19 18 18 18 18 18 18 18 18 18 18 18 18 18 18 18 18 18 18 18
26 27 27 28 29 31 33 33 33 33 32 31 30 29 27 26 25 25 25 25 24 22 21 21 20 20 20 19 19 19 18 18 18 18 18 18 18 18 18 18 18 17 18 18 18 18 18 18 19
27 26 27 29 31 32 33 33 33 33 32 30 29 28 27 26 26 25 25 25 24 23 21 20 20 19 19 19 19 19 19 19 18 18 18 18 18 17 17 17 17 17 18 18 18 18 18 18 18
27 27 29 30 31 31 32 33 33 33 32 31 29 28 27 26 26 26 26 25 24 23 22 21 20 20 20 19 19 19 18 18 18 17 18 18 17 17 17 17 17 17 17 17 17 18 18 18 18
28 28 29 29 30 31 31 32 32 32 32 31 31 30 28 27 27 27 27 26 25 24 23 22 21 20 20 20 19 19 18 18 18 18 18 18 17 17 17 17 17 17 17 17 17 17 18 18 18
28 28 29 29 30 30 31 31 31 32 32 31 31 31 29 28 28 27 27 26 25 24 23 23 22 21 21 20 20 19 19 19 18 18 18 18 17 17 17 17 17 17 17 17 17 17 17 18 18
29 29 29 29 29 30 30 30 31 31 31 31 31 30 29 29 29 28 28 27 26 24 23 23 22 21 21 20 20 20 19 19 19 18 18 18 18 18 18 17 17 17 17 17 17 17 17 17 17
28 29 29 29 29 29 30 29 31 31 32 32 31 30 30 30 29 28 28 27 26 25 24 23 22 21 21 20 20 19 19 19 19 18 18 18 18 18 18 18 17 17 17 17 17 17 17 17 17
28 27 27 29 29 29 29 28 31 32 32 32 32 31 30 30 29 28 28 27 26 25 24 23 22 21 20 20 19 19 19 19 19 19 19 18 18 18 18 18 17 17 17 17 17 16 16 16 16
26 26 27 28 30 30 29 29 32 32 32 32 32 31 31 30 30 29 28 27 26 25 24 23 22 21 20 19 19 19 19 19 19 19 19 18 18 18 18 18 17 17 16 16 16 16 16 16 16
26 26 27 28 30 30 29 30 31 32 32 32 32 32 31 30 30 30 29 27 26 25 24 23 22 21 20 19 19 18 18 18 18 19 19 18 18 18 18 17 17 16 16 16 15 15 15 15 15
27 28 28 29 31 30 29 30 31 32 32 32 32 31 31 30 30 29 29 28 26 25 24 22 21 20 19 19 18 18 18 18 18 18 18 18 18 17 17 16 16 16 15 15 15 15 14 14 14
26 26 28 30 31 30 30 30 31 32 32 32 32 31 30 29 29 28 28 27 26 24 23 22 21 20 19 18 18 18 18 18 18 18 18 17 17 16 16 15 15 15 15 15 14 14 14 13 13
26 26 27 29 30 30 29 29 30 31 32 32 31 30 29 28 27 27 27 26 26 24 23 22 21 20 19 18 18 17 17 17 17 17 17 16 16 15 15 15 14 14 14 13 13 13 13 13 13
25 27 27 28 28 28 28 26 28 30 31 31 31 29 27 26 25 25 25 25 25 24 23 22 21 20 19 18 18 18 17 17 17 16 16 15 15 15 14 14 13 13 13 13 12 12 12 12 12
26 27 27 27 27 27 28 27 28 30 30 30 29 26 23 22 21 21 21 22 23 23 23 22 21 19 19 18 18 17 17 16 16 15 15 14 14 14 13 13 13 12 12 12 12 12 11 11 11
26 26 27 27 26 25 26 26 27 29 30 29 25 21 20 19 18 18 19 19 20 21 21 21 20 19 18 18 17 17 16 16 15 14 14 13 13 13 12 12 12 12 12 12 11 11 11 11 11
26 25 24 24 24 24 27 26 27 27 26 24 21 18 17 16 16 16 17 17 18 19 19 19 19 18 17 17 16 16 16 15 14 14 13 12 12 12 12 11 11 11 11 11 11 10 10 10 10
25 25 23 23 24 25 27 26 27 25 22 20 18 17 16 15 15 15 15 15 16 16 17 17 17 16 16 16 15 15 15 14 13 13 12 12 11 11 11 11 11 10 10 10 10 9 9 9 8
25 25 26 25 25 25 27 27 24 23 21 20 18 16 15 14 14 14 14 14 15 15 15 15 15 15 15 15 14 14 14 13 13 12 11 11 11 10 10 10 10 10 9 9 8 8 8 8 7
26 26 25 24 23 23 26 26 24 22 20 19 17 15 14 13 13 13 13 14 14 14 14 14 14 14 14 14 13 13 12 12 12 11 11 10 10 9 9 9 9 9 8 8 7 7 7 7 7
25 25 24 25 25 24 24 24 24 23 20 18 16 14 13 12 13 13 13 13 13 13 13 13 13 13 13 12 12 12 11 11 11 10 10 9 9 9 9 8 8 8 7 7 7 7 6 6 6
26 25 24 23 23 24 24 22 23 21 19 17 14 13 12 12 12 12 12 12 12 12 12 12 12 12 12 11 11 11 10 10 10 9 9 8 8 8 8 7 7 7 7 6 6 6 6 5 5
Wind_Speed
14 16 13 11 8 10 16 7 3 7 12 9 10 8 9 15 11 9 8 15 24 23 22 21 19 17 16 17 17 17 17 16 15 14 14 14 14 15 14 14 14 13 13 12 11 10 9 8 7
12 15 12 8 11 13 12 6 5 9 8 4 6 5 9 15 12 11 12 18 24 22 21 20 19 18 17 16 17 17 17 16 16 15 14 14 14 14 14 13 13 12 12 11 10 8 7 6 5
11 15 9 9 15 15 13 9 5 6 4 3 4 7 9 9 10 10 14 18 22 20 20 21 20 19 17 17 16 17 17 17 16 16 15 14 14 13 13 12 12 12 11 10 8 7 6 5 4
7 8 8 11 18 19 15 11 5 2 1 2 2 7 12 8 8 15 17 18 21 21 21 21 20 19 18 17 16 16 17 17 17 16 15 14 13 12 12 11 11 10 9 8 7 6 5 4 3
10 9 14 18 22 22 18 14 7 6 2 2 2 10 13 14 18 18 16 17 19 20 21 21 20 19 18 17 16 16 16 17 17 16 15 14 13 12 11 10 9 9 8 7 6 5 4 3 3
11 12 16 18 21 21 20 16 10 9 6 2 2 10 12 15 18 16 16 15 18 20 20 20 20 19 18 17 16 15 15 15 16 15 14 13 12 11 10 9 8 8 7 7 6 4 3 2 2
15 16 20 22 21 21 18 14 10 9 8 5 5 8 13 16 16 16 15 15 18 20 19 18 18 17 16 16 15 15 15 15 15 15 13 12 11 10 9 8 8 8 7 7 5 3 1 1 3
16 16 23 23 22 21 20 16 11 11 8 6 7 3 15 17 16 16 15 14 17 19 19 16 18 17 16 15 15 14 14 14 14 13 12 11 10 9 9 10 10 9 8 7 6 4 4 5 6
19 18 20 22 21 18 19 16 12 11 8 5 3 3 18 19 18 16 15 14 15 17 18 16 17 16 17 17 16 15 14 13 13 12 11 11 10 11 11 11 13 10 9 8 7 7 8 8 9
17 18 22 22 21 19 16 14 12 12 11 8 6 12 21 20 18 17 17 16 17 17 18 17 17 16 17 16 17 14 14 14 13 13 13 11 12 12 11 16 15 12 10 10 10 11 11 11 10
20 20 19 20 21 18 15 11 12 12 11 12 15 19 23 21 18 17 17 16 17 17 15 18 17 14 13 11 14 12 13 14 14 14 16 13 10 9 11 13 12 11 12 10 11 11 11 11 8
20 19 19 20 18 14 14 11 11 11 11 11 14 18 22 21 19 17 17 17 17 18 16 17 17 14 12 12 11 10 9 11 11 13 16 11 5 4 9 8 10 10 10 9 9 9 10 3 2
20 19 18 17 16 12 13 14 12 12 11 8 8 11 16 18 18 17 15 17 18 17 15 15 16 13 8 8 8 8 6 9 10 13 12 10 5 3 5 4 5 6 6 6 5 4 3 2 1
18 18 19 17 16 14 14 15 16 16 14 11 11 11 16 18 18 17 15 14 16 16 15 13 14 14 10 7 6 6 6 7 9 11 13 11 7 5 4 3 2 2 2 2 2 1 3 2 3
19 17 17 18 17 17 16 19 20 19 17 15 15 15 18 18 15 13 14 14 16 16 14 12 12 14 11 10 8 5 6 9 6 9 12 12 10 9 6 3 2 1 2 2 2 3 3 2 3
16 17 18 18 19 18 18 19 18 19 17 15 15 15 14 13 15 15 16 14 15 17 15 14 15 15 12 10 9 6 6 7 7 10 11 12 11 11 7 4 3 4 4 3 2 2 3 3 4
16 17 18 19 20 19 20 19 19 16 16 14 14 14 13 12 14 17 17 16 15 16 16 14 13 15 14 11 9 6 6 6 8 9 9 10 11 10 8 5 4 5 4 3 2 4 4 4 4
15 17 19 19 19 22 21 20 18 12 14 14 13 12 12 11 11 10 13 17 15 16 16 14 12 13 14 11 8 7 7 7 7 7 9 11 10 10 9 6 6 7 5 4 5 5 5 3 3
20 17 18 18 19 21 20 19 17 11 11 12 12 11 11 10 7 4 6 12 15 16 16 15 14 13 12 11 11 10 8 8 7 6 10 11 11 10 9 6 6 6 6 6 5 3 3 2 1
21 20 19 15 17 17 17 18 17 14 13 10 8 6 4 3 3 4 2 5 12 15 16 15 13 14 12 10 8 8 9 7 7 6 6 8 9 9 8 7 5 5 6 6 5 3 2 2 2
18 18 17 14 13 12 10 15 17 17 14 10 8 4 2 4 4 4 3 1 6 12 15 16 14 14 13 12 9 10 8 6 5 6 5 7 9 9 8 8 6 5 4 4 5 4 4 3 2
15 16 17 17 12 10 12 14 18 19 16 13 10 6 6 8 8 9 8 6 2 5 12 14 15 14 13 13 13 14 10 8 6 6 6 7 8 8 9 9 8 5 4 5 5 4 3 3 2
14 14 16 17 15 13 13 15 16 19 20 17 9 7 11 13 13 14 14 13 10 6 6 12 14 14 13 12 14 12 10 8 8 9 10 9 7 9 10 10 9 7 6 6 7 5 4 2 2
13 15 16 15 14 18 17 16 16 12 14 11 11 14 15 15 15 15 15 14 14 13 10 11 13 12 11 11 11 10 11 11 12 11 10 8 7 7 10 11 10 8 7 6 6 5 6 5 4
13 13 10 12 14 17 17 17 13 3 14 17 18 17 16 16 15 15 15 15 15 15 14 13 13 12 11 10 9 9 11 12 12 11 10 9 8 8 8 8 7 7 7 7 6 5 5 5 5
14 16 13 11 13 15 21 20 10 14 19 20 19 17 16 15 14 14 13 13 13 14 14 14 14 14 12 11 10 10 11 9 10 11 10 9 8 9 8 8 8 8 8 7 5 4 4 4 3
14 16 17 17 19 16 13 12 11 17 18 18 18 17 15 14 14 13 13 13 13 14 14 14 15 14 13 14 14 13 12 12 12 12 11 10 9 9 8 8 7 7 7 6 3 4 4 4 3
16 14 10 13 14 16 14 7 11 18 17 16 16 15 14 14 13 13 12 12 12 13 14 14 15 15 14 14 13 12 13 13 11 11 11 10 9 8 8 8 7 6 5 4 3 3 4 4 4
15 16 14 12 14 15 14 2 5 15 17 16 15 14 14 13 12 12 11 11 12 12 13 14 15 15 15 14 14 13 12 12 13 12 11 10 10 8 8 8 7 6 5 4 4 4 4 5 5
13 15 14 12 12 13 14 1 11 17 17 17 16 14 14 13 12 12 11 11 12 13 13 14 14 15 14 14 14 14 13 13 13 12 11 9 9 8 7 6 6 5 6 5 5 5 6 6 6
Wind_Direction
279 275 276 284 269 253 264 274 116 59 64 48 50 35 39 53 55 96 128 124 118 125 131 130 124 123 129 138 142 143 143 141 137 133 127 120 114 108 106 105 104 104 103 102 100 96 91 85 81
283 286 288 270 268 270 287 295 69 56 76 81 81 58 60 67 73 106 125 120 122 127 136 135 128 125 127 133 139 144 144 144 141 136 131 126 120 115 112 109 107 106 106 105 103 99 94 87 79
275 275 279 273 263 267 281 312 45 49 72 74 71 69 59 67 87 114 124 131 127 132 136 133 133 128 128 130 136 142 145 145 142 138 135 131 126 122 117 115 113 111 110 109 106 102 96 88 76
258 255 249 260 267 268 269 281 323 339 12 91 89 85 83 70 101 120 135 142 133 135 133 138 136 132 130 131 135 140 143 144 143 141 138 135 132 127 123 120 117 115 114 111 107 101 93 79 58
240 257 258 259 264 270 274 278 283 279 232 195 127 103 96 91 101 122 146 144 137 136 134 142 139 137 135 135 137 139 142 144 143 142 141 139 136 132 128 125 122 120 116 113 108 101 87 62 24
236 242 250 255 260 264 265 264 262 259 248 214 188 114 110 116 120 139 145 147 139 133 135 142 142 142 141 141 141 142 142 142 143 143 143 142 140 136 132 130 127 124 120 118 115 109 91 41 346
238 244 250 255 262 268 272 270 258 246 229 195 228 137 128 129 134 145 144 152 138 136 136 147 149 148 147 147 146 145 143 142 142 143 144 145 145 143 141 138 135 132 130 130 131 133 147 263 285
235 246 253 257 263 269 275 271 253 247 234 183 233 171 133 134 145 145 151 152 142 138 141 151 155 156 158 157 154 150 147 145 145 147 151 153 155 158 158 155 146 143 144 146 153 171 210 237 251
231 241 246 250 257 263 264 262 247 228 224 189 230 114 133 144 152 153 154 154 146 143 144 155 159 162 167 165 160 157 154 152 152 158 163 168 183 182 182 176 151 153 155 160 174 199 221 236 245
225 233 241 249 260 269 266 254 239 218 202 193 170 133 138 153 160 164 161 164 156 152 153 161 164 166 174 167 157 167 172 168 180 179 177 195 210 196 182 154 154 161 167 177 196 214 230 236 237
227 234 248 252 257 271 276 248 238 225 211 197 186 162 152 160 167 173 168 169 162 161 166 164 167 169 174 159 159 174 181 171 193 188 178 200 206 180 141 148 159 172 183 196 201 219 235 230 224
232 235 246 258 267 260 270 267 244 232 229 209 201 167 158 166 172 179 173 170 165 167 177 166 165 168 174 162 165 172 175 165 183 180 178 187 181 159 150 166 181 186 196 203 195 223 227 233 279
232 241 248 254 267 261 254 263 269 259 244 226 218 177 166 175 180 181 177 170 168 170 178 170 165 160 166 148 158 166 161 163 166 158 167 162 163 153 149 160 180 203 190 181 230 237 148 101 316
241 235 245 250 250 252 251 255 258 256 248 227 209 199 191 189 187 181 179 174 172 167 173 170 157 152 153 146 148 146 150 136 143 146 158 162 150 135 128 138 176 235 132 151 232 92 95 72 39
254 252 240 238 240 238 243 249 247 246 240 222 210 199 201 193 183 183 181 178 172 164 165 160 156 154 157 160 164 154 148 141 131 131 141 145 142 134 134 141 150 153 107 95 46 59 85 97 75
244 245 246 234 227 232 236 246 242 229 229 220 210 202 204 191 183 190 190 175 173 163 159 162 171 162 161 164 162 159 155 135 128 127 133 140 134 134 135 137 143 142 121 98 81 53 67 58 57
241 234 238 238 217 219 226 242 250 218 211 213 205 200 203 199 198 188 181 170 169 158 157 163 167 163 165 162 155 153 130 115 120 123 122 124 128 132 129 123 121 124 94 71 83 56 57 59 49
229 229 234 237 215 211 221 234 249 222 203 205 208 200 189 206 206 195 173 166 164 157 156 162 162 158 157 157 149 147 133 119 108 108 116 120 125 132 129 125 123 115 98 80 70 71 60 56 39
256 254 243 233 218 205 219 232 240 219 208 211 203 202 191 196 187 159 156 158 157 154 157 163 167 159 157 162 164 160 148 132 122 121 128 132 138 138 132 123 117 118 121 123 116 101 107 98 44
255 268 266 240 217 203 213 230 240 237 210 214 218 195 165 160 118 100 126 149 161 158 160 162 165 163 164 163 159 149 136 133 129 120 114 117 119 118 121 124 127 126 130 132 128 133 127 97 64
244 256 265 258 215 192 218 236 245 246 231 202 204 208 133 83 46 37 24 108 162 164 166 172 169 164 164 151 137 129 121 123 122 120 111 103 109 116 125 131 129 131 128 130 132 140 139 139 121
245 252 267 278 252 206 202 235 237 242 237 219 204 186 90 57 39 31 21 25 31 170 170 163 161 157 152 147 149 151 156 155 142 127 113 107 109 116 118 118 119 117 107 108 109 88 97 114 132
247 252 253 265 274 264 230 232 241 230 230 222 187 113 80 62 47 36 28 22 22 38 139 149 147 146 149 150 153 154 151 133 122 116 112 101 92 95 101 104 103 97 95 94 91 90 79 87 77
241 249 246 241 252 248 245 249 249 245 235 199 123 90 74 63 55 44 34 32 34 42 66 105 122 126 133 137 143 144 136 129 126 122 118 107 99 93 96 99 100 98 96 93 94 91 73 62 47
227 234 228 220 231 242 236 239 243 76 69 97 101 88 76 68 59 50 42 39 40 47 61 77 95 100 103 110 117 120 122 124 124 120 116 115 111 106 103 102 101 99 99 98 94 84 75 59 40
218 233 237 231 228 236 226 226 212 118 99 96 96 93 83 73 66 58 51 47 49 54 62 72 81 85 89 94 96 100 106 108 111 113 117 115 112 110 107 103 100 101 102 95 86 95 90 74 17
224 228 248 265 280 283 261 203 131 120 113 109 105 98 89 80 72 64 57 54 56 60 65 73 79 81 82 85 87 87 91 97 104 105 105 106 109 115 112 106 100 93 87 83 68 77 58 53 14
238 237 235 249 265 274 276 205 168 152 134 120 111 104 98 89 79 71 66 64 65 68 70 72 77 80 80 81 85 92 95 101 105 105 105 109 109 108 109 102 97 94 91 78 53 72 59 28 20
218 237 249 253 254 260 269 290 61 144 134 123 113 107 102 94 85 78 75 72 72 73 75 76 76 79 80 82 86 90 93 95 96 98 100 101 102 104 105 105 103 99 87 65 41 34 34 22 16
232 228 239 250 259 267 273 24 92 115 119 118 113 106 99 94 88 84 82 80 77 77 78 79 81 82 83 85 87 88 89 91 94 95 95 97 98 97 96 92 87 85 76 55 35 22 30 20 11
Height
1518 1516 1514 1513 1506 1499 1490 1473 1468 1470 1476 1480 1481 1482 1483 1488 1497 1511 1511 1512 1511 1512 1518 1522 1526 1530 1534 1537 1541 1544 1547 1550 1552 1555 1557 1559 1560 1562 1564 1565 1566 1567 1568 1569 1570 1571 1571 1572 1572
1518 1518 1517 1511 1505 1502 1490 1470 1469 1472 1477 1480 1481 1483 1485 1493 1499 1506 1510 1513 1512 1514 1519 1523 1527 1531 1535 1538 1542 1545 1548 1551 1553 1556 1558 1560 1561 1563 1564 1566 1567 1568 1569 1570 1571 1571 1572 1572 1573
1518 1518 1517 1507 1502 1500 1493 1473 1470 1473 1476 1479 1481 1484 1489 1497 1502 1506 1510 1513 1514 1516 1519 1523 1528 1531 1535 1539 1542 1546 1549 1551 1554 1556 1558 1560 1562 1563 1565 1566 1567 1568 1569 1570 1571 1572 1572 1573 1573
1518 1517 1514 1507 1501 1486 1480 1474 1472 1475 1477 1480 1481 1485 1494 1500 1502 1506 1510 1514 1516 1518 1520 1524 1528 1532 1536 1539 1543 1546 1549 1552 1555 1557 1559 1561 1563 1564 1565 1566 1568 1569 1570 1571 1572 1572 1573 1574 1574
1518 1515 1510 1506 1496 1481 1475 1472 1472 1474 1477 1481 1483 1487 1496 1501 1503 1507 1511 1515 1517 1520 1521 1525 1529 1533 1536 1540 1544 1547 1550 1553 1555 1558 1560 1562 1563 1565 1566 1567 1568 1569 1570 1571 1572 1573 1574 1574 1575
1515 1509 1510 1506 1493 1479 1472 1471 1471 1473 1476 1480 1483 1486 1497 1502 1504 1508 1512 1516 1518 1520 1522 1526 1530 1533 1537 1540 1544 1547 1551 1553 1556 1558 1560 1562 1564 1565 1566 1567 1568 1570 1571 1572 1573 1574 1575 1575 1575
1510 1505 1503 1498 1490 1480 1471 1468 1469 1472 1476 1481 1484 1487 1495 1501 1505 1509 1513 1516 1519 1521 1522 1526 1530 1533 1537 1541 1544 1548 1551 1554 1556 1558 1560 1562 1564 1565 1566 1567 1569 1570 1571 1572 1574 1575 1575 1576 1576
1505 1503 1500 1495 1490 1481 1472 1468 1469 1473 1476 1480 1484 1486 1494 1501 1504 1509 1513 1516 1520 1522 1523 1526 1530 1533 1537 1540 1544 1547 1551 1553 1556 1558 1560 1562 1564 1565 1567 1568 1569 1570 1571 1573 1574 1575 1576 1576 1577
1502 1501 1498 1492 1486 1477 1470 1467 1468 1472 1476 1480 1484 1487 1493 1499 1504 1508 1512 1516 1519 1522 1523 1526 1529 1533 1536 1540 1543 1547 1550 1552 1555 1558 1560 1562 1564 1565 1567 1568 1569 1570 1571 1573 1574 1575 1576 1577 1577
1495 1496 1491 1484 1478 1472 1466 1466 1467 1469 1474 1479 1486 1489 1493 1499 1502 1506 1510 1514 1518 1521 1524 1526 1530 1533 1537 1540 1542 1546 1549 1551 1554 1557 1559 1562 1564 1566 1567 1568 1569 1570 1571 1573 1574 1575 1576 1577 1577
1489 1488 1483 1479 1475 1471 1466 1465 1466 1467 1471 1475 1482 1486 1490 1496 1500 1504 1508 1512 1515 1519 1523 1526 1529 1533 1537 1540 1541 1545 1547 1550 1554 1556 1558 1561 1564 1566 1567 1568 1569 1570 1571 1572 1574 1575 1576 1577 1579
1484 1482 1481 1478 1474 1472 1469 1467 1466 1467 1470 1472 1476 1481 1487 1492 1497 1501 1505 1509 1513 1517 1521 1525 1528 1531 1536 1539 1541 1544 1547 1550 1552 1555 1558 1560 1563 1565 1566 1567 1568 1569 1570 1572 1574 1574 1576 1578 1579
1480 1479 1478 1476 1474 1472 1472 1470 1469 1468 1470 1472 1476 1478 1482 1488 1493 1498 1502 1506 1510 1514 1518 1522 1525 1529 1533 1537 1540 1543 1547 1549 1551 1554 1556 1559 1562 1564 1566 1567 1568 1569 1571 1572 1573 1575 1575 1577 1578
1475 1475 1475 1474 1474 1473 1473 1472 1471 1469 1469 1470 1473 1477 1481 1485 1489 1493 1498 1502 1507 1510 1515 1519 1522 1525 1530 1534 1538 1542 1545 1548 1550 1552 1555 1558 1560 1561 1563 1565 1567 1568 1570 1571 1572 1573 1574 1575 1577
1473 1471 1471 1471 1472 1472 1474 1473 1468 1466 1466 1467 1469 1473 1476 1480 1484 1488 1493 1498 1502 1506 1511 1516 1519 1522 1526 1530 1535 1539 1542 1545 1548 1550 1552 1555 1557 1558 1560 1561 1563 1565 1567 1569 1571 1571 1572 1573 1574
1471 1473 1475 1467 1468 1469 1474 1474 1460 1460 1461 1462 1465 1469 1473 1477 1480 1486 1488 1493 1498 1502 1507 1512 1517 1519 1522 1527 1531 1536 1539 1542 1544 1547 1549 1551 1552 1554 1556 1558 1560 1562 1564 1566 1568 1569 1570 1571 1572
1472 1476 1473 1465 1460 1463 1467 1466 1454 1453 1456 1458 1462 1465 1470 1473 1477 1480 1484 1488 1494 1498 1502 1508 1513 1516 1519 1523 1528 1532 1535 1538 1541 1543 1545 1547 1549 1551 1552 1555 1557 1559 1560 1562 1564 1566 1567 1569 1570
1475 1471 1467 1462 1453 1458 1461 1459 1452 1449 1452 1456 1459 1462 1466 1470 1474 1477 1480 1484 1489 1494 1498 1503 1509 1513 1516 1520 1524 1528 1531 1534 1537 1539 1542 1544 1546 1547 1548 1551 1552 1554 1556 1559 1560 1562 1564 1566 1567
1464 1461 1459 1452 1444 1452 1456 1455 1451 1448 1451 1453 1456 1460 1464 1468 1471 1474 1478 1481 1486 1491 1495 1500 1505 1509 1512 1516 1519 1523 1526 1529 1533 1536 1538 1540 1542 1543 1544 1546 1549 1550 1552 1554 1556 1559 1561 1562 1564
1466 1465 1456 1445 1439 1446 1453 1454 1449 1448 1450 1452 1455 1458 1463 1467 1469 1473 1477 1480 1483 1487 1492 1497 1502 1506 1509 1513 1517 1520 1522 1525 1529 1532 1535 1537 1538 1539 1540 1543 1545 1547 1549 1550 1552 1555 1557 1558 1560
1464 1465 1457 1449 1440 1444 1454 1460 1452 1447 1447 1451 1455 1460 1464 1467 1471 1474 1476 1479 1481 1485 1489 1493 1498 1502 1507 1510 1513 1516 1519 1522 1526 1528 1530 1532 1534 1536 1538 1539 1541 1544 1546 1548 1549 1552 1554 1555 1557
1466 1459 1456 1453 1451 1455 1461 1474 1459 1450 1447 1449 1454 1459 1464 1469 1472 1474 1477 1479 1481 1483 1486 1489 1494 1499 1503 1506 1509 1512 1516 1519 1522 1525 1527 1529 1531 1533 1535 1536 1539 1541 1543 1545 1547 1549 1552 1553 1554
1461 1456 1457 1458 1458 1460 1457 1468 1459 1446 1448 1448 1453 1461 1467 1470 1473 1476 1478 1479 1480 1481 1483 1486 1491 1495 1499 1504 1507 1510 1514 1517 1520 1522 1525 1527 1529 1531 1533 1535 1537 1539 1541 1543 1545 1547 1549 1551 1553
1456 1459 1458 1459 1463 1475 1464 1468 1463 1446 1441 1445 1456 1465 1469 1472 1475 1478 1480 1481 1481 1482 1483 1486 1489 1494 1497 1501 1505 1509 1512 1515 1517 1520 1522 1525 1527 1530 1532 1534 1536 1538 1540 1543 1545 1547 1548 1550 1552
1457 1467 1476 1479 1479 1473 1458 1462 1457 1448 1445 1450 1460 1468 1472 1474 1477 1480 1482 1484 1484 1484 1485 1487 1490 1493 1497 1501 1505 1508 1511 1513 1516 1518 1521 1524 1527 1529 1532 1534 1536 1538 1540 1543 1544 1546 1548 1549 1551
1457 1462 1476 1481 1476 1464 1451 1453 1447 1448 1454 1460 1466 1471 1475 1478 1481 1484 1486 1487 1488 1488 1488 1490 1492 1495 1498 1501 1504 1507 1510 1513 1516 1519 1522 1525 1527 1530 1532 1534 1537 1539 1541 1543 1545 1546 1548 1549 1550
1456 1458 1455 1464 1462 1463 1446 1440 1451 1451 1458 1464 1469 1474 1478 1481 1484 1487 1489 1490 1491 1492 1492 1493 1495 1497 1500 1502 1505 1508 1511 1514 1517 1520 1523 1526 1528 1531 1533 1536 1538 1540 1542 1544 1545 1547 1548 1549 1549
1449 1451 1459 1466 1475 1473 1452 1444 1450 1454 1461 1467 1472 1478 1482 1484 1487 1490 1492 1494 1495 1495 1496 1497 1498 1500 1502 1505 1507 1510 1513 1516 1519 1522 1525 1527 1530 1532 1535 1537 1539 1541 1543 1544 1546 1547 1547 1548 1548
1450 1453 1455 1455 1456 1466 1465 1460 1444 1451 1461 1470 1477 1482 1485 1487 1490 1493 1495 1497 1498 1499 1499 1500 1502 1503 1505 1508 1511 1513 1516 1519 1521 1524 1527 1530 1532 1535 1537 1539 1541 1542 1544 1545 1546 1546 1547 1547 1547
1440 1446 1452 1463 1461 1454 1457 1468 1450 1456 1466 1474 1481 1486 1489 1491 1493 1496 1498 1500 1501 1502 1503 1504 1506 1508 1510 1512 1515 1517 1520 1522 1525 1527 1530 1533 1535 1537 1538 1540 1542 1543 1544 1544 1545 1546 1545 1545 1544